Regional Weather Roundup
Issued by NWS

Home | Current Version | Previous Version | Graphics & Text | Print | Product List | Glossary On
Versions: 1 2 3 4 5 6 7 8 9 10 11 12 13 14 15 16 17 18 19 20 21 22 23 24 25 26 27 28 29 30 31 32 33 34 35 36 37 38 39 40 41 42 43 44 45 46 47 48 49 50
440
ASUS45 KSLC 170010
RWRUT

UTAH REGIONAL WEATHER ROUNDUP
NATIONAL WEATHER SERVICE SALT LAKE CITY UT
600 PM MDT MON OCT 16 2017

UTZ001>011-023>025-170100-

NORTHERN UTAH

CITY           SKY/WX    TMP DP  RH WIND       PRES   REMARKS
BRIGHAM CITY   CLEAR     61  14  16 S5        30.34S
HILL AFB       CLEAR     60  28  30 NW5       30.34F
LOGAN          CLEAR     65  22  19 N3        30.32F
OGDEN          CLEAR     60  29  30 NW5       30.33F
SALT LAKE CITY PTCLDY    61  35  37 W8        30.33F
TOOELE VALLEY  CLEAR     54  36  50 N5        30.35S
WENDOVER       CLEAR     55  18  23 CALM      30.34F
WEST JORDAN    CLEAR     57  29  33 NW10      30.35S

$$

UTZ011>015-024>027-170100-

CENTRAL/NORTHEAST UTAH

CITY           SKY/WX    TMP DP  RH WIND       PRES   REMARKS
PROVO AIRPORT  CLEAR     60  17  18 NW6       30.33F
MOAB/CANYONLAN CLEAR     65   7  10 NW8       30.31F
DELTA          CLEAR     64  16  15 CALM      30.32S
PRICE          CLEAR     62  10  13 SE3       30.37S
ROOSEVELT      CLEAR     63  12  14 CALM      30.34F
VERNAL         CLEAR     63  10  12 CALM      30.32F

$$

UTZ013>016-019>022-027-170100-

SOUTHERN UTAH

CITY           SKY/WX    TMP DP  RH WIND       PRES   REMARKS
BRYCE CANYON   CLEAR     63   4   9 SE12      30.44S
CEDAR CITY     CLEAR     73   7   7 NE5       30.31F
MILFORD        CLEAR     67  12  12 N10       30.30F
ST GEORGE      CLEAR     79   7   6 CALM      30.17F
HANKSVILLE     CLEAR     66  10  11 N5        30.33F
BLANDING         N/A     66  10  11 S3        30.43S

$$

REGIONAL REPORTS     COLORADO/ARIZONA

CITY           SKY/WX    TMP DP  RH WIND       PRES   REMARKS
CRAIG, CO      CLEAR     60   2   9 W8        30.35S
GRAND JUNCTION CLEAR     64  14  14 W6        30.32F
RIFLE, CO      CLEAR     65   5   9 W14       30.32F
MONTROSE, CO   CLEAR     62   8  12 NW6       30.37R
CORTEZ, CO     CLEAR     69   9   9 W5        30.36S
COLORADO CITY    N/A     79  12   8 NW6       30.30F
PAGE, AZ       CLEAR     69   5   8 CALM      30.27F
GRAND CANYON   CLEAR     71   4   7 NW7       30.39F
KINGMAN, AZ    MOSUNNY   83  18   9 N8        30.19F
FLAGSTAFF, AZ  MOCLDY    69  17  13 VRB6      30.41S

$$

REGIONAL REPORTS    NEVADA/IDAHO/WYOMING

CITY           SKY/WX    TMP DP  RH WIND       PRES   REMARKS
LAS VEGAS, NV  PTSUNNY   82  10   6 CALM      30.14F
ELY, NY        SUNNY     71  13  10 N6        30.34F
ELKO, NV       MOSUNNY   70   6   8 W7        30.30F
POCATELLO, ID  CLEAR     62  23  22 CALM      30.31F
BURLEY, ID     CLEAR     64  18  17 CALM      30.28F
FORT BRIDGER,    N/A     62   4  10 W14G20    30.41R
EVANSTON, WY   CLEAR     59   3  10 W15       30.40S
ROCK SPRINGS,  CLEAR     60   0   9 W10       30.35S
KEMMERER, WY   CLEAR     57   9  14 NW9       30.40R

$$




USA.gov is the U.S. government's official web portal to all federal, state and local government web resources and services.